Location: Boiro
(42.6475°N, 8.8834°W)
Time: 23:56:11
(UTC+01:00)

Transit 2A - Pass Details

Date: 06 December 2021
Orbit: 591 x 967 km, 66.7° (Epoch: 18 January)

Event Time Altitude Azimuth Distance (km) Brightness Sun altitude
Rises 03:37:37 0° 278° (W) 3,447 - -56.2°
Reaches altitude 10° 03:41:41 10° 306° (NW) 2,590 - -55.5°
Maximum altitude 03:44:20 13° 332° (NNW) 2,425 - -55.0°
Drops below altitude 10° 03:47:04 10° 358° (N) 2,669 - -54.6°
Exits shadow 03:51:16 - 25° (NNE) 3,610 9.8 -53.9°
Sets 03:51:25 0° 25° (NNE) 3,653 9.9 -53.8°
